User: anonymous   Login
Location: Vancouver
(49.2500°N, 123.1330°W)
Time: 11:45:27
(UTC-08:00)
Language:

Cosmos 1408 Rocket - Orbit

View from above orbital plane
View from above orbital plane
View from above satellite
View from above satellite

Ground track
Ground track

The orbit data is extracted from the following two-line orbital elements,

1 13553U 82092B   16338.22019039  .00000101  00000-0  91942-5 0  9997
2 13553  82.5705  56.6621 0020715 336.2878  78.6253 14.84094800847978
Epoch (UTC): 03 December 2016 05:17:04
Eccentricity: 0.0020715
inclination: 82.5705°
perigee height: 602 km
apogee height: 631 km
right ascension of ascending node: 56.6621°
argument of perigee: 336.2878°
revolutions per day: 14.84094800
mean anomaly at epoch: 78.6253°
orbit number at epoch: 84797

The dashed part of the orbit path shows where the satellite is in the earth's shadow,  

DLR